| time (UTC) | temp F | wind direction | speed knots | gust knots | rain 1hr in | rain 24hr in | rain mn in | humidity % | barometer mb |
| 20260505021518 | 47 | 326 | 1.7 | 3.5 | 0.00 | 0.00 | 0.00 | 79 | 1005.3 |
| 20260505020017 | 47 | 308 | 1.7 | 3.5 | 0.00 | 0.00 | 0.00 | 79 | 1005.3 |
| 20260505014515 | 47 | 262 | 0.9 | 4.3 | 0.00 | 0.00 | 0.00 | 79 | 1005.5 |
| 20260505013011 | 47 | 276 | 0.9 | 4.3 | 0.00 | 0.00 | 0.00 | 79 | 1005.6 |
| 20260505011513 | 47 | 250 | 0.0 | 6.1 | 0.00 | 0.00 | 0.00 | 79 | 1005.7 |
| 20260505010014 | 47 | 281 | 0.9 | 8.7 | 0.00 | 0.00 | 0.00 | 79 | 1005.8 |
| 20260505004506 | 47 | 244 | 0.0 | 5.2 | 0.00 | 0.00 | 0.00 | 79 | 1006.0 |
| 20260505003001 | 47 | 265 | 0.9 | 7.0 | 0.00 | 0.00 | 0.00 | 80 | 1006.2 |
| 20260505001627 | 46 | 244 | 1.7 | 7.0 | 0.00 | 0.00 | 0.00 | 80 | 1006.5 |
| 20260505000109 | 46 | 271 | 1.7 | 6.1 | 0.00 | 0.00 | 0.00 | 80 | 1006.7 |
| 20260504234558 | 47 | 271 | 1.7 | 7.8 | 0.00 | 0.00 | 0.00 | 80 | 1006.7 |
| 20260504233103 | 47 | 269 | 1.7 | 6.1 | 0.00 | 0.00 | 0.00 | 79 | 1006.9 |
| 20260504231547 | 47 | 262 | 0.0 | 5.2 | 0.00 | 0.00 | 0.00 | 79 | 1006.9 |
| 20260504230045 | 48 | 261 | 0.0 | 2.6 | 0.00 | 0.00 | 0.00 | 77 | 1007.0 |
| 20260504224543 | 48 | 256 | 0.0 | 3.5 | 0.00 | 0.00 | 0.00 | 76 | 1007.2 |
| 20260504223038 | 49 | 251 | 0.9 | 2.6 | 0.00 | 0.00 | 0.00 | 75 | 1007.3 |
| 20260504221535 | 49 | 227 | 3.5 | 8.7 | 0.00 | 0.00 | 0.00 | 74 | 1007.3 |
| 20260504220034 | 49 | 249 | 0.9 | 5.2 | 0.00 | 0.00 | 0.00 | 73 | 1007.4 |
| 20260504214530 | 50 | 194 | 2.6 | 10.4 | 0.00 | 0.00 | 0.00 | 72 | 1007.4 |
| 20260504213032 | 50 | 272 | 0.9 | 9.6 | 0.00 | 0.00 | 0.00 | 72 | 1007.5 |
| 20260504211525 | 50 | 259 | 0.0 | 7.0 | 0.00 | 0.00 | 0.00 | 72 | 1007.7 |
| 20260504210024 | 50 | 268 | 1.7 | 8.7 | 0.00 | 0.00 | 0.00 | 72 | 1007.7 |
| 20260504204525 | 50 | 277 | 0.9 | 7.0 | 0.00 | 0.00 | 0.00 | 72 | 1007.7 |
| 20260504203057 | 51 | 290 | 0.9 | 5.2 | 0.00 | 0.00 | 0.00 | 72 | 1007.8 |
| 20260504201553 | 51 | 264 | 0.9 | 7.0 | 0.00 | 0.00 | 0.00 | 71 | 1007.8 |
| 20260504200052 | 51 | 300 | 2.6 | 9.6 | 0.00 | 0.00 | 0.00 | 72 | 1007.8 |
| 20260504194558 | 50 | 202 | 1.7 | 7.0 | 0.00 | 0.00 | 0.00 | 70 | 1007.8 |
| 20260504193048 | 50 | 271 | 1.7 | 5.2 | 0.00 | 0.00 | 0.00 | 67 | 1007.7 |
| 20260504191602 | 50 | 252 | 2.6 | 7.8 | 0.00 | 0.00 | 0.00 | 65 | 1007.7 |
| 20260504190014 | 50 | 265 | 1.7 | 7.8 | 0.00 | 0.00 | 0.00 | 64 | 1007.7 |
| 20260504184511 | 50 | 242 | 0.0 | 3.5 | 0.00 | 0.00 | 0.00 | 64 | 1007.6 |
| 20260504183038 | 51 | 267 | 1.7 | 5.2 | 0.00 | 0.00 | 0.00 | 62 | 1007.6 |
| 20260504181538 | 51 | 281 | 0.9 | 6.1 | 0.00 | 0.00 | 0.00 | 60 | 1007.5 |
| 20260504180033 | 52 | 232 | 1.7 | 5.2 | 0.00 | 0.00 | 0.00 | 58 | 1007.4 |
| 20260504174529 | 53 | 248 | 1.7 | 6.1 | 0.00 | 0.00 | 0.00 | 56 | 1007.3 |
| 20260504173027 | 53 | 261 | 1.7 | 7.0 | 0.00 | 0.00 | 0.00 | 58 | 1007.3 |
| 20260504171539 | 54 | 271 | 1.7 | 5.2 | 0.00 | 0.00 | 0.00 | 56 | 1007.2 |
| 20260504090112 | 66 | 277 | 5.2 | 13.0 | 0.00 | 0.00 | 0.00 | 49 | 1008.9 |
| 20260504081550 | 61 | 234 | 2.6 | 7.0 | 0.00 | 0.00 | 0.00 | 58 | 1008.7 |
| 20260504044545 | 49 | 285 | 0.0 | 2.6 | 0.00 | 0.00 | 0.00 | 72 | 1007.7 |
| 20260504043050 | 49 | 292 | 0.0 | 2.6 | 0.00 | 0.00 | 0.00 | 71 | 1007.5 |
| 20260504041544 | 49 | 274 | 0.0 | 3.5 | 0.00 | 0.00 | 0.00 | 71 | 1007.5 |
| 20260504040047 | 49 | 277 | 0.9 | 2.6 | 0.00 | 0.00 | 0.00 | 70 | 1007.5 |
| 20260504034543 | 49 | 298 | 0.9 | 3.5 | 0.00 | 0.00 | 0.00 | 71 | 1007.5 |
| 20260504033014 | 49 | 304 | 0.9 | 3.5 | 0.00 | 0.00 | 0.00 | 70 | 1007.5 |
| 20260504031513 | 49 | 323 | 1.7 | 3.5 | 0.00 | 0.00 | 0.00 | 71 | 1007.5 |
| 20260504030015 | 48 | 292 | 0.0 | 3.5 | 0.00 | 0.00 | 0.00 | 71 | 1007.6 |
| 20260504024507 | 48 | 305 | 0.9 | 3.5 | 0.00 | 0.00 | 0.00 | 74 | 1007.6 |
| 20260504023006 | 48 | 299 | 0.9 | 2.6 | 0.00 | 0.00 | 0.00 | 75 | 1007.7 |